Content
SEND FEEDBACK

Daily
Averages
Monthly
Summary
United States of America

LIVONIA, MICHIGAN


Home > North America > United States > Michigan
Elevation: 778 feet     Latitude: 42 13N     Longitude: 083 31W

WEATHER
 
SELECT A DAY
Number of Records: 207,415;   Date Range: 1/1/95 - 12/18/14
 
SHARE

PRINT THIS DATA

[ ← Previous Day ]
WEATHER ALMANAC - OCTOBER 18, 2013
[ Next Day → ]
[ °C ]   °F
Weather ElementAverageHighLow
Temperature53 °F66 °F (2:53 pm)43 °F (6:53 am)
Dewpoint41.8 °F45 °F (12:53 pm)39 °F (6:53 am)
Humidity68.3 %87 % (3:51 am)38 % (3:53 pm)
Barometer29.89 in29.93 in (9:53 am)29.85 in (3:53 pm)
Wind Speed9 mph15 mph (3:53 pm)
Wind Gust24.2 mph (2:53 pm)
Weather ElementAverage
Visibility9.3 mi
Wind DirectionWSW (235.6 °)

Weather ElementTotal
Precipitation0.05 in
Heating Degree Days10.5 (Base 65)
Growing Degree Days4.5 (Base 50)
Averaged from 25 records on October 18, 2013
WEATHER CONDITIONS BREAKOUT
WIND DIRECTION BREAKOUT
WEATHER BY HOUR - OCTOBER 18, 2013
[ °C ]   °F
Local TimeTemperatureDewpointHumidityBarometerVisibilityWind DirectionWind SpeedGust SpeedPrecipitationEventsConditions
1:53 AM50.0 °F44.1 °F80 %29.87 in10.0 miWSW (250°)10.4 mph0.00 inOvercast
2:53 AM50.0 °F44.1 °F80 %29.88 in10.0 miWSW (240°)6.9 mph0.01 inOvercast
3:51 AM48.2 °F44.6 °F87 %29.88 in10.0 miSW (230°)6.9 mphOvercast
3:53 AM48.9 °F44.1 °F83 %29.88 in10.0 miSW (220°)8.1 mphOvercast
4:04 AM48.2 °F42.8 °F82 %29.88 in10.0 miSW (220°)8.1 mphMostly Cloudy
4:53 AM46.9 °F43.0 °F86 %29.88 in7.0 miSW (220°)6.9 mphClear
5:53 AM45.0 °F41.0 °F86 %29.90 in5.0 miSW (220°)6.9 mphClear
6:53 AM43.0 °F39.0 °F86 %29.90 in10.0 miSSW (200°)5.8 mphClear
7:53 AM43.0 °F39.0 °F86 %29.91 in5.0 miSSW (210°)8.1 mphHaze
8:53 AM44.1 °F39.9 °F85 %29.92 in5.0 miSSW (200°)6.9 mph0.01 inHaze
9:53 AM48.0 °F41.0 °F77 %29.93 in10.0 miSSW (210°)9.2 mphHaze
10:53 AM51.1 °F43.0 °F74 %29.93 in10.0 miSSW (200°)6.9 mphMostly Cloudy
11:53 AM55.9 °F44.1 °F64 %29.92 in10.0 miSSW (210°)11.5 mphMostly Cloudy
12:53 PM60.1 °F45.0 °F57 %29.90 in10.0 miSW (220°)9.2 mphPartly Cloudy
1:53 PM64.0 °F44.1 °F48 %29.87 in10.0 miWSW (240°)10.4 mph20.7 mphClear
2:53 PM66.0 °F42.1 °F42 %29.86 in10.0 miWSW (240°)13.8 mph24.2 mph0.01 inMostly Cloudy
3:53 PM66.0 °F39.9 °F38 %29.85 in10.0 miWSW (240°)15.0 mphScattered Clouds
4:53 PM64.9 °F39.9 °F40 %29.85 in10.0 miWest (260°)13.8 mph18.4 mphOvercast
5:53 PM63.0 °F39.0 °F41 %29.86 in10.0 miWSW (250°)13.8 mph0.01 inClear
6:53 PM57.0 °F39.9 °F53 %29.86 in10.0 miWSW (240°)5.8 mphClear
7:53 PM55.9 °F41.0 °F57 %29.88 in10.0 miWest (260°)5.8 mphMostly Cloudy
8:53 PM55.9 °F42.1 °F60 %29.90 in10.0 miWNW (290°)10.4 mphScattered Clouds
9:53 PM53.1 °F43.0 °F69 %29.91 in10.0 miWNW (300°)9.2 mphClear
10:53 PM50.0 °F41.0 °F71 %29.92 in10.0 miWest (270°)8.1 mphClear
11:53 PM46.0 °F39.0 °F76 %29.92 in10.0 miWSW (250°)8.1 mph0.01 inClear
Hourly data recorded from KYIP, located miles away from Livonia, Michigan







STORIES FROM OUR PARTNERS